Location: ??
(35.5653°N, 139.6194°E)
Time: 12:52:29
(UTC+00:00)

CZ-4B R/B - Pass Details

Date: 20 November 2019
Orbit: 809 x 881 km, 99.1° (Epoch: 14 December)

Event Time Altitude Azimuth Distance (km) Brightness Sun altitude
Rises 20:10:11 0° 14° (NNE) 3,382 6.3 -14.7°
Reaches altitude 10° 20:12:32 10° 16° (NNE) 2,455 5.6 -14.2°
Maximum altitude 20:17:59 80° 104° (ESE) 864 3.3 -13.1°
Drops below altitude 10° 20:23:31 10° 191° (S) 2,488 5.7 -12.1°
Sets 20:25:54 0° 192° (SSW) 3,431 6.4 -11.6°
